[[{"header":{"parameterUnit":"m.s-1","parameterCategory":1,"la1":30.2991,"la2":30.254,"lo1":-89.0895,"lo2":-89.0444,"dy":0.0017,"dx":0.0017,"nx":28,"ny":28,"refTime":"2025-07-21T21:00:00:Z","depth":0,"parameterNumber":2,"parameterNumberName":"U-component_of_WINDS"},"data":[0,0,0,0,0,0,0,0,0,0,0,0,0,0,0,0,0,0,0,0,0,0,0,0,0,0,0,0,0,0,0,0,0,0,0,0,0,0,0,0,0,0,0,0,0,0,0,0,0,0,0,0,0,0,0,0,0,0,2.914,2.9141,0,2.9291,2.9293,2.9295,2.9266,2.9263,2.926,2.9257,2.942,2.9426,2.9433,0,0,0,0,0,0,0,0,0,0,0,0,0,2.8831,2.8837,2.9139,2.9141,2.9143,2.9291,2.9293,2.9295,2.9266,2.9263,2.9259,2.9256,2.9417,2.9425,2.9434,0,0,0,0,0,0,0,0,0,0,0,0,0,2.8972,2.8839,2.9139,2.9146,2.9148,2.9291,2.9293,2.9296,2.9267,2.9263,2.9258,2.9255,2.9415,2.9425,2.9435,2.9581,0,0,2.9466,2.9471,0,0,0,0,0,0,0,0,2.8964,2.8984,2.9143,2.9146,2.9149,2.9255,2.9244,2.9392,2.9268,2.9222,2.9257,2.9253,2.9369,2.9382,2.942,2.9589,2.9596,2.9467,2.9474,2.9478,2.9481,0,0,0,0,0,0,0,2.8955,2.8977,2.92,2.9146,2.9149,2.9144,2.916,2.9272,2.9317,2.9226,2.9224,2.9242,2.9369,2.941,2.9424,2.9598,2.9467,2.9476,2.9483,2.9487,2.9896,2.99,0,0,0,0,0,0,2.8942,2.8969,2.9195,2.9204,2.9044,2.9153,2.917,2.9225,2.9316,2.9325,2.9245,2.924,2.9395,2.9412,2.9429,2.9607,2.9478,2.9488,2.9494,2.9891,2.9897,2.9902,0,0,0,0,0,0,2.8935,2.8962,2.9189,2.9086,2.9115,2.9163,2.9225,2.923,2.9271,2.933,2.9339,2.9278,2.9392,2.9415,2.9543,2.9612,2.9492,2.9502,2.9886,2.9893,2.9899,2.9963,0,0,0,0,0,0,2.8926,2.896,2.9014,2.9088,2.912,2.9298,2.9229,2.9236,2.9288,2.9283,2.9364,2.9373,2.9391,2.9528,2.9554,2.9624,2.951,2.988,2.9889,2.9897,2.9955,2.9972,2.9986,0,0,0,0,0,2.8915,2.9027,2.9017,2.9044,2.9189,2.9302,2.9321,2.9337,2.9294,2.935,2.9388,2.9371,2.9601,2.9542,2.957,2.9645,2.9876,2.9886,2.9897,2.9949,2.9969,2.9985,0,0,0,0,0,0,2.8963,2.9037,2.9026,2.9165,2.9227,2.9297,2.9368,2.9358,2.9435,2.9427,2.9446,2.9464,2.9595,2.9633,2.9566,2.9792,2.9732,2.9749,2.9762,2.9782,2.9796,2.9785,2.9518,0,0,0,0,0,2.8989,2.9073,2.9134,2.9251,2.9282,2.932,2.937,2.9377,2.9443,2.947,2.9517,2.9584,2.9671,2.9729,2.9812,2.9961,2.9979,3.0027,3.0042,3.0054,3.0068,3.015,3.0173,2.9937,2.9936,2.9936,0,0,2.9045,2.9096,2.9148,2.9261,2.931,2.9399,2.9342,2.9438,2.9504,2.9485,2.9608,2.9646,2.9722,2.9861,2.9925,2.9897,3.0137,3.0067,3.0077,3.0084,3.0164,3.0186,3.0206,2.9944,2.9942,2.9941,0,0,2.9191,2.9238,2.934,2.939,2.9464,2.9489,2.9513,2.9585,2.9609,2.9733,2.972,2.9801,2.9951,3.0005,3.0053,3.0221,3.0208,3.0248,3.0327,3.0407,3.0426,3.0442,3.0503,3.0524,3.0262,3.0262,3.0262,0,2.9251,2.9381,2.9394,2.9491,2.9542,2.9527,2.9632,2.9681,2.978,2.9817,2.9783,2.9971,3.0021,3.0173,3.0214,3.0253,3.0283,3.0239,3.0422,3.0439,3.0454,3.0512,3.0535,3.0267,3.0266,3.0266,3.0265,0,2.9452,2.9543,2.9617,2.9711,2.9771,2.9871,2.9901,2.9961,2.9963,2.9992,3.0119,3.0179,3.0274,3.0311,3.0315,3.0465,3.0445,3.0417,3.0357,3.0481,3.0535,3.0558,3.0273,3.0271,3.027,3.0269,0,0,2.9632,2.9731,2.9758,2.9801,2.9882,2.9954,3.0055,3.0146,3.0197,3.0267,3.0353,3.048,3.0455,3.0509,3.0519,3.0589,3.0719,3.0552,3.0554,3.0581,3.0888,3.0908,3.0934,3.0711,3.0715,3.0719,3.0882,0,2.9786,2.9961,2.9976,3.0135,3.0219,3.0207,3.0295,3.0356,3.0386,3.0464,3.0498,3.0588,3.0548,3.058,3.0649,3.0688,3.0781,3.0677,3.0793,3.0797,3.0773,3.0962,3.0984,3.1135,3.0903,3.0907,3.0909,0,2.9988,3.0061,3.0227,3.0297,3.0334,3.0412,3.0498,3.0572,3.0642,3.0659,3.0719,3.072,3.0827,3.0763,3.091,3.0839,3.0888,3.0915,3.0921,3.0932,3.086,3.0979,3.1184,3.1206,3.0943,3.0941,3.0938,0,3.0102,3.0243,3.036,3.0397,3.0482,3.0538,3.0576,3.0641,3.0696,3.0772,3.0807,3.0895,3.0944,3.1013,3.1038,3.099,3.1185,3.1123,3.1203,3.1203,3.1245,3.1241,3.146,3.1277,3.1276,3.1276,3.1275,0,3.0272,3.0374,3.0413,3.0485,3.06,3.0618,3.0732,3.0768,3.0827,3.0907,3.0903,3.0979,3.1008,3.109,3.1111,3.123,3.1253,3.1271,3.1275,3.1271,3.1268,3.1302,3.1292,3.1282,3.128,3.1279,3.1278,0,3.0418,3.0448,3.0576,3.0645,3.0665,3.0747,3.0808,3.0879,3.0908,3.101,3.1036,3.1082,3.1178,3.121,3.1328,3.1342,3.148,3.1476,3.1456,3.1457,3.1535,3.1527,3.1782,3.1817,3.1611,3.1613,3.1615,0,3.0524,3.0603,3.068,3.0733,3.0773,3.0859,3.0914,3.0935,3.0993,3.1079,3.114,3.1235,3.1311,3.1466,3.1512,3.1602,3.1599,3.1683,3.1613,3.1606,3.16,3.1595,3.1603,3.1695,3.1698,3.1699,3.1701,0,3.071,3.0721,3.0799,3.0883,3.0948,3.1016,3.1082,3.1126,3.1158,3.1224,3.1321,3.138,3.1499,3.1594,3.1685,3.1727,3.172,3.1722,3.1746,3.1742,3.1727,3.1736,3.1491,3.1716,3.1715,3.1714,3.1713,3.1712,3.0839,3.0908,3.0973,3.1061,3.1113,3.1175,3.1244,3.1282,3.1363,3.1459,3.1468,3.1573,3.1643,3.1765,3.1811,3.1895,3.1872,3.1905,3.1914,3.1922,3.1927,3.1714,3.1912,3.1912,3.1911,3.1911,3.1911,0,3.1024,3.1065,3.1146,3.1237,3.1307,3.1292,3.1365,3.1424,3.1516,3.158,3.1656,3.1768,3.186,3.1913,3.2006,3.2063,3.2062,3.2086,3.2082,3.2092,3.1943,3.1913,3.2085,3.2085,3.2085,3.2085,3.2085,3.2085,3.1128,3.1244,3.1263,3.1405,3.1447,3.1548,3.1591,3.1648,3.1699,3.1824,3.19,3.1933,3.1994,3.2091,3.2175,3.2188,3.2223,3.225,3.2261,3.212,3.2102,3.2085,3.2057,3.2257,3.2257,3.2402,3.2404,3.2405]},{"header":{"parameterUnit":"m.s-1","parameterCategory":1,"la1":30.2991,"la2":30.254,"lo1":-89.0895,"lo2":-89.0444,"dy":0.0017,"dx":0.0017,"nx":28,"ny":28,"refTime":"2025-07-21T21:00:00:Z","depth":0,"parameterNumber":3,"parameterNumberName":"V-component_of_WINDS"},"data":[0,0,0,0,0,0,0,0,0,0,0,0,0,0,0,0,0,0,0,0,0,0,0,0,0,0,0,0,0,0,0,0,0,0,0,0,0,0,0,0,0,0,0,0,0,0,0,0,0,0,0,0,0,0,0,0,0,0,3.1337,3.1338,0,3.1363,3.1364,3.1364,3.1326,3.1325,3.1323,3.1322,3.1348,3.135,3.1352,0,0,0,0,0,0,0,0,0,0,0,0,0,3.1252,3.1254,3.1337,3.1338,3.1338,3.1363,3.1364,3.1364,3.1326,3.1325,3.1323,3.1321,3.1347,3.1349,3.1352,0,0,0,0,0,0,0,0,0,0,0,0,0,3.1285,3.1255,3.1337,3.1322,3.1321,3.1363,3.1364,3.1364,3.1327,3.1325,3.1323,3.1321,3.1346,3.1349,3.1352,3.141,0,0,3.1361,3.1362,0,0,0,0,0,0,0,0,3.1283,3.1288,3.1324,3.1323,3.1322,3.1339,3.1343,3.1379,3.1327,3.1325,3.1322,3.132,3.1347,3.1349,3.1359,3.1411,3.1412,3.1361,3.1363,3.1364,3.1365,0,0,0,0,0,0,0,3.1281,3.1287,3.1348,3.1325,3.1324,3.1313,3.1316,3.135,3.1346,3.1325,3.1322,3.1325,3.1346,3.1356,3.1359,3.1413,3.1361,3.1364,3.1365,3.1367,3.1509,3.1511,0,0,0,0,0,0,3.1281,3.1285,3.1347,3.1348,3.1297,3.1316,3.1319,3.1336,3.1346,3.1346,3.1327,3.1324,3.1352,3.1356,3.136,3.1424,3.1364,3.1367,3.1369,3.1507,3.151,3.1512,0,0,0,0,0,0,3.1279,3.1287,3.1346,3.1316,3.1323,3.132,3.1339,3.1337,3.1348,3.1348,3.1347,3.1338,3.135,3.1356,3.1397,3.1425,3.1368,3.1371,3.1505,3.1508,3.1511,3.1557,0,0,0,0,0,0,3.1277,3.1286,3.1309,3.1317,3.1325,3.1384,3.1341,3.1339,3.1353,3.1348,3.1358,3.1358,3.1349,3.1393,3.14,3.1428,3.1373,3.1502,3.1506,3.151,3.1553,3.1561,3.1568,0,0,0,0,0,3.1274,3.1322,3.1311,3.1318,3.1353,3.1385,3.139,3.1379,3.1355,3.1377,3.1377,3.1358,3.1421,3.1397,3.1405,3.1434,3.15,3.1505,3.151,3.1549,3.156,3.1568,0,0,0,0,0,0,3.1318,3.1323,3.131,3.1362,3.1374,3.1379,3.1406,3.1391,3.1409,3.1404,3.139,3.1392,3.1436,3.144,3.1413,3.1489,3.1457,3.1463,3.1484,3.1494,3.1502,3.1499,3.1375,0,0,0,0,0,3.1334,3.1361,3.1363,3.1409,3.1415,3.141,3.1423,3.1414,3.1425,3.143,3.1432,3.1444,3.1465,3.148,3.1501,3.1554,3.1553,3.1578,3.1585,3.1592,3.1597,3.1621,3.1631,3.1527,3.1527,3.1527,0,0,3.1367,3.1373,3.1391,3.1418,3.1425,3.1451,3.1414,3.1444,3.1462,3.1434,3.1472,3.1475,3.1486,3.1532,3.1552,3.1536,3.1625,3.1598,3.1603,3.1604,3.1627,3.1636,3.1645,3.153,3.153,3.1529,0,0,3.144,3.1449,3.1485,3.1493,3.1504,3.15,3.1509,3.1516,3.1516,3.1554,3.1532,3.1554,3.1594,3.1601,3.161,3.1682,3.1664,3.169,3.1729,3.1753,3.1761,3.1768,3.1791,3.1799,3.1695,3.1695,3.1695,0,3.1479,3.1518,3.1506,3.1536,3.1547,3.1522,3.1558,3.1566,3.1584,3.1592,3.1574,3.162,3.1626,3.1672,3.1689,3.1699,3.1706,3.1687,3.1761,3.1768,3.1774,3.1796,3.1804,3.1698,3.1698,3.1697,3.1697,0,3.1564,3.1591,3.1619,3.1635,3.165,3.1683,3.1675,3.1691,3.168,3.1677,3.1714,3.172,3.174,3.175,3.1741,3.1794,3.1783,3.1764,3.1731,3.1787,3.1807,3.1815,3.1702,3.1701,3.17,3.1699,0,0,3.1666,3.1673,3.1683,3.1688,3.1698,3.1718,3.1749,3.1767,3.178,3.1793,3.1816,3.1849,3.183,3.184,3.1831,3.1852,3.1904,3.183,3.1829,3.184,3.1959,3.1971,3.1981,3.1893,3.1895,3.1896,3.1957,0,3.1735,3.1787,3.1776,3.1827,3.185,3.1825,3.1852,3.186,3.1857,3.1876,3.1873,3.1895,3.187,3.1876,3.1896,3.1894,3.1927,3.189,3.1912,3.1913,3.1907,3.1992,3.2005,3.2063,3.1965,3.1966,3.1967,0,3.1823,3.1837,3.189,3.1892,3.1901,3.1925,3.1939,3.1958,3.1965,3.1962,3.1972,3.1958,3.1987,3.1955,3.1993,3.1967,3.1976,3.1976,3.1978,3.1977,3.1942,3.199,3.2081,3.2088,3.1979,3.1978,3.1978,0,3.1887,3.1919,3.1954,3.196,3.1965,3.1981,3.1984,3.199,3.2,3.2013,3.2019,3.2036,3.2044,3.2056,3.2046,3.2024,3.2084,3.2052,3.208,3.208,3.2091,3.209,3.2182,3.2102,3.2102,3.2102,3.2102,0,3.1963,3.1996,3.1982,3.2003,3.2038,3.2024,3.2059,3.2059,3.2063,3.2083,3.2064,3.2082,3.2069,3.2086,3.2079,3.2109,3.2114,3.211,3.2107,3.211,3.211,3.2114,3.2108,3.2104,3.2104,3.2103,3.2103,0,3.204,3.2032,3.2068,3.2069,3.2069,3.2094,3.2095,3.2113,3.2109,3.2134,3.2139,3.2132,3.2151,3.2143,3.2163,3.2158,3.2196,3.2189,3.2193,3.219,3.2216,3.2213,3.2311,3.2322,3.2238,3.2239,3.224,0,3.2088,3.2112,3.2114,3.2125,3.2129,3.2148,3.2158,3.2145,3.2156,3.2165,3.2182,3.2199,3.2212,3.2243,3.2239,3.2254,3.2245,3.2279,3.2248,3.2249,3.2242,3.2239,3.224,3.2284,3.2285,3.2286,3.2287,0,3.2172,3.2166,3.2182,3.2195,3.2207,3.2217,3.2225,3.2236,3.2223,3.2236,3.2255,3.2264,3.2284,3.23,3.2312,3.2314,3.2297,3.2297,3.2303,3.2305,3.2305,3.2302,3.2206,3.2294,3.2293,3.2293,3.2292,3.2292,3.2233,3.2252,3.2255,3.2272,3.2276,3.2284,3.23,3.2297,3.2312,3.2326,3.2318,3.2339,3.2343,3.2358,3.2362,3.2377,3.2364,3.2374,3.2376,3.2378,3.238,3.2305,3.238,3.238,3.2379,3.2379,3.2379,0,3.2314,3.2314,3.233,3.234,3.2353,3.2336,3.2344,3.2355,3.2373,3.2379,3.2391,3.2411,3.2426,3.2423,3.2436,3.2449,3.2441,3.2452,3.245,3.245,3.2393,3.2384,3.2458,3.2458,3.2458,3.2458,3.2458,3.2458,3.2357,3.2385,3.238,3.241,3.2411,3.243,3.2435,3.2441,3.2445,3.2467,3.2479,3.2477,3.2478,3.2491,3.2504,3.2502,3.2507,3.252,3.2516,3.2462,3.2454,3.2447,3.2438,3.2522,3.2522,3.2571,3.2571,3.2571]}]]